Location: Boiro
(42.6475°N, 8.8834°W)
Time: 20:17:12
(UTC+02:00)

UKube-1 - Pass Details

Date: 27 April 2024
Orbit: 584 x 591 km, 98.3° (Epoch: 19 May)

Event Time Altitude Azimuth Distance (km) Brightness Sun altitude
Rises 04:23:49 0° 2° (N) 2,836 ? -28.0°
Reaches altitude 10° 04:26:12 10° 351° (N) 1,928 ? -27.7°
Enters shadow 04:28:25 23° 324° (NW) 1,271 ? -27.5°
